Location: Dugenta
(41.1333°N, 14.4500°E)
Time: 14:04:37
(UTC+00:00)

COSMO-SKYMED 1 - Pass Details

Date: 03 March 2021
Orbit: 621 x 623 km, 97.9° (Epoch: 21 April)

Event Time Altitude Azimuth Distance (km) Brightness Sun altitude
Rises 17:45:13 0° 3° (N) 2,914 6.0 -10.2°
Reaches altitude 10° 17:47:33 10° 355° (N) 2,002 5.2 -10.6°
Maximum altitude 17:51:31 36° 290° (WNW) 995 4.3 -11.3°
Drops below altitude 10° 17:55:28 10° 223° (SW) 1,987 5.8 -12.1°
Sets 17:57:46 0° 215° (SW) 2,889 6.5 -12.5°
